STARLINK-33612, 63325

Orbit data source: Space-Track

STARLINK-33612, 63325 is a payload satellite owned by SpaceX/Seattle (US) in LEO that was launched on Tue, 18 Mar 2025 UTC via an FALCON 9 launch vehicle from the Air Force Eastern Test Range (AFETR). Payload-class satellites include a variety of spacecraft equipped with specific instruments for various scientific and technological missions. These include communications satellites like Starlink; space stations such as the ISS; scientific satellites like the Hubble; Earth observation satellites from companies like Planet Labs, Umbra, and HawkEye 360; GPS; miniature CubeSats for education and research; and military/defense satellites.

Loading next visibility...
Identifier
63325, 2025-057U
Orbit
LEO
Country
Flag of USUS
Related business
Manufacturer
SpaceX/Seattle
Mission
Operational Commercial Communications
Bus & Motor
STARLINK V2MO, Unknown motor
Mass
575 kg wet, ~530 kg dry
Launch date (UTC)
2025-03-18 (1 year ago)
Launch vehicle
FALCON 9
Launch site
Air Force Eastern Test Range (AFETR)
Object type
Payload
Rocket body
Debris
Shape & HBR
Box + 2 Pan, 17.7 m
Radar Cross Section
36.964 m², Large (>1 m²)

Expand to show TLE details & history
Last TLE update: 20 hours ago

TLE from 20 hours ago
0 STARLINK-33612
1 63325U 25057U   26171.08176923  .00010867  00000-0  40370-3 0  9990
2 63325  42.9965 172.8726 0001292 218.4105 141.6655 15.27589858 71435
Epoch: 2026-06-20T01:57Z
TLE epoch observation values (Epoch: 2026-06-20T01:57:44.861Z)
Latitude
Longitude
-124.86583°
Altitude
483.49 km
Speed
7.625 km/s
True Right ascension
11h 31m 29s
True Declination
0° 00' 00"
Sunlit
Object was in daylight at epoch
Visualization orbit readout
Latitude
Unknown
Longitude
Unknown
Altitude
Unknown
Speed
Unknown
Apparent Right ascension
Unknown
Apparent Declination
Unknown
Sunlit
N/A
Visualization observer readout
Local Sidereal Time
08:46:42
Azimuth
Unknown
Elevation
Unknown
Doppler factor
Unknown
Orbital elements
Apogee altitude
485.852 km
Perigee altitude
484.079 km
Semi-major axis
6,863.102 km
Eccentricity
0.00013
Inclination
42.9965°
RAAN
172.8726°
Arg. of periapsis
218.4105°
True anomaly
141.67468°
Mean anomaly
141.6655°
Eccentric anomaly
141.67009°
Mean motion
3.81735 °/min
Orbital period
94.31 mins
BSTAR
0.0004037
Loading maneuver chart data...
Computing Atmospheric mass density...
Loading historical data...
Loading historical data...
Loading historical data...
Loading historical data...
Loading historical data...
Loading historical data...
Loading historical data...

Documentation

Showing up to 5 results
|